THOR ABLESTAR DEB, 2701

Orbit data source: Space-Track

THOR ABLESTAR DEB, 2701 is space debris in LEO originally from a launch on Thu, 24 Jun 1965 UTC launched from the Air Force Western Test Range (AFWTR). Debris objects in space refer to the collection of defunct objects orbiting the Earth. Examples of debris include non-operational satellites, rocket bodies, and fragments generated from explosions, collisions, or faulty payload assembly.

Loading next visibility...
Identifier
2701, 1965-048E
Orbit
LEO
Country
Flag of USUS
Related business
Manufacturer
Unknown
Mission
Spacecraft
Bus & Motor
Unknown
Mass
Unknown
Launch date (UTC)
1965-06-24 (61 years ago)
Launch vehicle
Unknown
Launch site
Air Force Western Test Range (AFWTR)
Object type
Payload
Rocket body
Debris
Shape & HBR
Unknown shape, 0.1 m
Radar Cross Section
Small (<0.1 m²)

Expand to show TLE details & history
Last TLE update: 1 day ago

TLE from 1 day ago
0 THOR ABLESTAR DEB
1 02701U 65048E   26145.34595666  .00000279  00000-0  33523-3 0  9992
2 02701  89.8747 287.7114 0061105 314.1732  73.4467 13.63959777 18185
Epoch: 2026-05-25T08:18Z
TLE epoch observation values (Epoch: 2026-05-25T08:18:10.655Z)
Latitude
28.33355°
Longitude
-79.70086°
Altitude
1,012.271 km
Speed
7.354 km/s
True Right ascension
19h 11m 06s
True Declination
28° 11' 42"
Sunlit
Object was in daylight at epoch
Visualization orbit readout
Latitude
Unknown
Longitude
Unknown
Altitude
Unknown
Speed
Unknown
Apparent Right ascension
Unknown
Apparent Declination
Unknown
Sunlit
N/A
Visualization observer readout
Local Sidereal Time
17:40:13
Azimuth
Unknown
Elevation
Unknown
Doppler factor
Unknown
Orbital elements
Apogee altitude
1,063.562 km
Perigee altitude
973.169 km
Semi-major axis
7,396.502 km
Eccentricity
0.00611
Inclination
89.8747°
RAAN
287.7114°
Arg. of periapsis
314.1732°
True anomaly
74.11934°
Mean anomaly
73.4467°
Eccentric anomaly
73.78288°
Mean motion
3.41196 °/min
Orbital period
105.51 mins
BSTAR
0.00033523
Loading maneuver chart data...
Computing Atmospheric mass density...

Documentation

Showing up to 5 results
|